TimePDT,TemperatureF,Dew PointF,Humidity,Sea Level PressureIn,VisibilityMPH,Wind Direction,Wind SpeedMPH,Gust SpeedMPH,PrecipitationIn,Events,Conditions,WindDirDegrees,DateUTC
12:58 AM,59.7,54.0,81,30.10,10.0,East,1.2,-,N/A,,Clear,100,2013-08-31 07:58:00
1:58 AM,55.2,54.0,96,30.09,10.0,East,1.2,-,N/A,,Clear,100,2013-08-31 08:58:00
2:58 AM,54.1,53.6,98,30.08,10.0,Calm,Calm,-,N/A,,Clear,0,2013-08-31 09:58:00
3:58 AM,53.6,53.2,99,30.07,10.0,Calm,Calm,-,N/A,,Clear,0,2013-08-31 10:58:00
4:58 AM,52.2,51.8,99,30.07,10.0,ESE,3.5,-,N/A,,Clear,110,2013-08-31 11:58:00
5:28 AM,51.8,50.0,94,30.06,2.5,Calm,Calm,-,N/A,,Clear,0,2013-08-31 12:28:00
5:33 AM,51.8,51.8,100,30.06,1.8,SSE,2.3,-,N/A,,Clear,160,2013-08-31 12:33:00
5:38 AM,51.8,51.8,100,30.06,4.0,Calm,Calm,-,N/A,,Clear,0,2013-08-31 12:38:00
5:58 AM,51.6,51.3,99,30.07,10.0,Calm,Calm,-,N/A,,Clear,0,2013-08-31 12:58:00
6:08 AM,51.8,51.8,100,30.06,2.5,Calm,Calm,-,N/A,,Clear,0,2013-08-31 13:08:00
6:13 AM,50.0,50.0,100,30.06,3.0,Calm,Calm,-,N/A,,Clear,0,2013-08-31 13:13:00
6:58 AM,50.4,50.0,99,30.06,10.0,SSE,1.2,-,N/A,,Clear,160,2013-08-31 13:58:00
7:58 AM,55.4,55.0,99,30.05,10.0,Calm,Calm,-,N/A,,Clear,0,2013-08-31 14:58:00
8:58 AM,63.0,56.3,79,30.04,10.0,North,3.5,-,N/A,,Clear,360,2013-08-31 15:58:00
9:58 AM,66.9,56.8,70,30.03,10.0,NNE,11.5,-,N/A,,Clear,20,2013-08-31 16:58:00
10:58 AM,68.7,56.8,66,30.01,10.0,NNW,6.9,-,N/A,,Clear,330,2013-08-31 17:58:00
11:58 AM,71.8,55.9,57,29.99,10.0,NNE,10.4,-,N/A,,Clear,20,2013-08-31 18:58:00
12:58 PM,73.6,56.3,55,29.97,10.0,NNE,10.4,-,N/A,,Clear,30,2013-08-31 19:58:00
1:58 PM,75.7,56.8,52,29.95,10.0,North,9.2,-,N/A,,Clear,10,2013-08-31 20:58:00
2:58 PM,77.2,56.1,48,29.93,10.0,Variable,4.6,-,N/A,,Clear,0,2013-08-31 21:58:00
3:58 PM,79.5,54.9,42,29.91,10.0,Variable,3.5,-,N/A,,Clear,0,2013-08-31 22:58:00
4:58 PM,80.4,55.0,42,29.89,10.0,NNE,8.1,-,N/A,,Clear,30,2013-08-31 23:58:00
5:58 PM,80.4,55.4,42,29.88,10.0,NNE,5.8,-,N/A,,Clear,30,2013-09-01 00:58:00
6:58 PM,79.3,54.7,42,29.87,10.0,NE,2.3,-,N/A,,Clear,50,2013-09-01 01:58:00
7:58 PM,76.1,55.0,48,29.86,10.0,NE,3.5,-,N/A,,Clear,40,2013-09-01 02:58:00
8:58 PM,70.3,55.4,59,29.87,10.0,NNE,5.8,-,N/A,,Clear,30,2013-09-01 03:58:00
9:58 PM,67.5,55.4,65,29.87,10.0,NE,2.3,-,N/A,,Clear,50,2013-09-01 04:58:00
10:58 PM,65.5,55.4,70,29.87,10.0,Calm,Calm,-,N/A,,Clear,0,2013-09-01 05:58:00
11:58 PM,65.5,55.2,69,29.87,10.0,West,4.6,-,N/A,,Clear,280,2013-09-01 06:58:00